sat.trackr.live / text

‹ back to catalog

SCS-01 B

NORAD 63983 · 2025-100B

PAYLOAD ACTIVE UNKNOWN

§ Identity

Operator
Country
PRC
Launch date
2025-05-14
Launch site
JSC
Launch vehicle
Mass (kg)
RCS (m²)

External: N2YO · Heavens-Above · Gunter

§ Orbital elements

Epoch: 2026-05-25T03:48:51.539040Z

Period
93.67 min
Inclination
97.3638°
Eccentricity
0.0008786
Mean motion
15.37349719 rev/d
Perigee alt
447.9 km
Apogee alt
460.0 km
Semi-major
6,832.1 km
B*
7.1675e-4
RAAN
222.1409°
Arg perigee
27.7776°
Mean anomaly
332.3936°
Rev number
5,737

§ Raw data

SCS-01 B1 63983U 25100B   26145.15892985  .00026244  00000+0  71675-3 0  99982 63983  97.3638 222.1409 0008786  27.7776 332.3936 15.37349719 57372

JSON: /api/v1/satellites/63983 · /tle

For live sub-satellite position, see the globe view (requires WebGL).

§ Visibility from observer

Set your observer location to see the next 7 days of passes ≥ 10°. The values pass through the URL so the page stays shareable.

No JS? Fill the form by hand. The geolocation button needs JavaScript.